Theta_e
314 313 314 314 314 318 320 321 324 327 332 328 324 323 319 320 322 322 323 321 322 321 319 320 320 319 320 320 319 319 319 322 322 323 325 325 321 319 319 317 319 320 319 318 319 322 324 327 327 327 328 328 329 330 331 332 333 332 332 331 328 330 331 331 330 326 323 323 321 321 320 320 321 320 319 318 319 318 318 317 317 316 317 323 327 331 333 333 335 333 331 327 324 328 328 328 326
313 313 314 313 316 321 322 322 330 336 333 321 318 320 318 323 322 321 325 323 323 321 320 320 321 321 320 320 319 319 320 320 320 320 322 322 321 321 320 318 318 320 320 318 318 320 323 326 327 327 327 327 327 327 328 329 330 331 331 330 328 328 329 330 330 326 323 322 321 321 321 321 321 320 319 319 320 319 319 318 318 317 318 328 332 333 333 333 336 333 329 326 324 327 329 329 328
313 314 313 315 320 321 325 325 333 338 328 317 318 323 320 320 322 323 325 321 321 320 320 320 321 322 319 320 320 320 320 319 320 320 321 322 322 323 321 319 317 319 320 319 319 319 321 324 326 327 326 326 326 326 326 326 328 328 329 329 328 328 328 328 329 327 322 321 320 321 321 321 320 320 321 320 321 321 320 318 318 318 321 329 334 334 334 334 336 333 328 325 323 326 329 329 329
313 314 315 318 321 323 332 330 335 338 325 320 319 323 325 321 324 323 320 319 320 320 320 320 321 321 320 321 320 320 320 319 320 320 321 321 322 321 319 318 317 317 319 320 319 319 319 322 325 326 326 326 326 326 325 325 325 325 326 327 327 327 327 327 328 326 322 321 320 320 321 321 321 322 323 321 322 322 320 320 319 320 324 329 333 334 335 335 336 333 328 325 322 324 328 329 329
313 314 316 319 322 323 331 328 332 332 322 325 320 322 331 325 323 320 319 319 320 320 320 320 320 321 321 321 320 320 319 319 320 320 320 319 319 318 317 317 317 316 318 320 320 319 319 321 323 325 326 326 325 325 325 325 324 324 324 325 326 326 326 326 326 325 322 321 320 320 321 321 323 326 326 323 324 324 322 321 320 323 327 331 333 334 335 335 335 332 327 323 320 322 325 327 327
315 316 317 320 320 318 329 325 325 329 326 332 322 322 327 321 320 318 319 320 320 320 320 320 320 320 320 320 320 320 319 320 319 319 318 317 317 317 317 317 316 316 317 319 320 320 319 320 321 324 325 325 325 325 325 325 325 324 324 325 326 326 326 325 324 324 322 321 321 321 321 323 327 330 330 326 323 323 323 323 322 326 329 331 332 333 334 334 333 330 325 320 317 318 322 324 324
320 319 318 322 321 319 332 326 325 332 326 324 323 324 321 316 318 318 319 319 320 320 320 321 320 320 319 320 320 320 320 320 320 319 318 317 317 316 317 316 317 316 316 318 320 321 320 319 320 321 323 324 325 324 324 324 324 324 325 325 326 327 326 325 324 323 322 321 320 321 322 324 329 331 331 329 325 323 323 324 323 326 329 330 331 330 331 332 329 325 319 316 313 314 316 319 319
321 320 318 327 330 327 332 325 328 333 321 317 320 321 317 317 318 319 320 318 320 319 320 321 320 320 320 319 319 320 319 320 320 319 318 317 316 316 316 316 316 316 316 316 319 321 320 320 319 319 321 323 324 324 324 324 324 324 324 325 326 327 327 326 324 323 322 321 321 322 322 325 330 331 331 330 329 326 323 323 324 325 326 328 328 327 326 325 323 317 313 312 310 311 311 313 313
320 321 318 326 334 335 335 328 326 324 322 321 317 318 317 318 319 319 320 318 319 318 320 321 320 321 319 318 319 320 319 320 320 319 318 317 317 316 316 315 315 316 316 316 317 320 320 321 320 319 319 320 322 323 323 323 323 323 323 324 325 326 327 326 325 324 323 321 322 322 323 325 330 332 332 330 330 328 323 321 322 323 323 324 324 323 322 320 318 314 311 310 309 308 309 309 310
320 320 318 326 335 333 330 328 326 320 323 322 315 319 318 318 319 318 319 318 318 318 319 320 319 320 319 319 319 320 319 320 320 320 318 317 317 316 316 316 315 315 316 316 316 318 320 321 320 320 319 318 319 320 322 322 321 321 321 322 324 325 326 326 325 325 324 323 323 323 323 325 329 332 333 332 331 329 326 323 321 321 320 321 321 321 321 320 319 315 311 309 307 307 307 307 307
322 319 319 332 335 327 324 326 328 326 325 320 316 318 317 318 319 318 318 318 318 317 318 320 319 319 318 318 319 320 319 320 321 320 319 318 317 316 316 316 316 315 315 316 316 316 318 320 321 320 320 319 318 318 320 321 320 319 319 320 322 322 324 325 326 326 325 326 325 324 323 324 328 331 333 333 332 330 329 327 325 322 318 316 317 316 316 317 317 314 310 307 305 305 305 305 305
323 324 332 339 329 324 326 326 326 330 331 323 319 319 318 318 318 318 318 317 317 316 317 319 319 318 318 318 319 318 317 319 321 320 319 319 317 316 316 316 316 315 315 316 315 316 316 318 320 320 320 319 319 318 318 320 319 318 318 318 319 319 321 323 325 327 327 327 327 326 325 325 326 328 332 333 332 331 329 329 326 323 318 314 313 312 312 312 313 311 309 306 305 305 305 305 304
321 325 335 330 323 325 323 325 328 332 334 324 317 318 318 317 318 318 317 317 316 316 317 319 318 318 318 318 317 317 318 318 319 319 320 319 317 316 316 316 316 316 315 315 315 316 315 316 318 320 320 320 320 319 318 319 319 318 318 317 317 317 318 320 323 326 327 328 328 326 326 326 325 326 331 333 332 330 330 329 326 325 320 314 312 310 309 311 311 309 307 305 305 305 304 304 305
320 322 327 321 322 327 321 323 327 325 327 323 318 317 317 317 317 317 317 317 317 316 317 319 318 317 317 317 317 318 318 317 317 318 318 319 318 317 316 317 316 316 315 315 315 315 316 316 316 318 320 320 320 320 319 318 319 318 318 317 316 316 315 316 319 323 326 327 327 326 326 325 324 325 329 332 332 331 331 329 327 326 320 314 312 310 309 309 309 307 306 305 304 304 304 305 305
319 320 327 326 326 328 323 322 323 321 322 324 320 316 317 317 317 317 317 318 318 317 317 318 317 317 317 316 317 317 316 316 316 317 318 318 318 317 316 316 316 316 315 315 315 315 315 315 316 316 318 319 320 320 320 319 318 317 317 317 317 316 315 315 316 319 322 325 326 326 325 325 324 325 328 331 332 331 330 328 327 324 318 315 312 310 308 307 307 306 305 305 304 304 304 305 305
318 319 326 328 325 324 324 321 322 325 320 319 318 316 317 316 317 317 317 317 317 317 317 317 317 317 316 316 316 315 316 316 316 317 317 318 317 317 317 317 317 316 315 315 315 315 315 315 315 315 316 317 319 320 320 320 319 317 316 316 316 316 316 316 316 317 319 321 324 324 324 324 325 325 327 330 331 331 330 327 326 321 315 313 311 309 307 305 305 305 305 305 304 304 305 305 306
315 321 328 326 324 323 325 323 321 323 319 318 317 316 316 316 317 317 317 317 317 317 316 316 316 317 316 316 316 315 316 316 316 316 317 318 317 317 317 317 317 316 316 316 315 315 315 315 315 315 315 316 317 318 319 320 320 318 317 316 316 316 316 316 316 317 317 318 320 322 323 324 325 324 326 329 330 330 328 325 322 317 314 312 311 309 306 305 305 305 305 305 305 305 305 306 306
318 328 326 322 327 326 328 325 317 318 318 317 316 316 315 316 317 316 317 317 316 316 315 316 315 316 316 315 316 316 316 316 316 316 316 317 317 317 317 317 318 317 317 317 316 315 315 315 315 315 315 315 316 316 318 319 320 320 318 317 316 315 316 316 317 316 316 317 317 319 321 322 323 322 324 328 329 328 325 323 319 315 313 312 310 309 306 305 305 305 305 305 305 305 306 306 307
321 327 322 326 335 326 322 321 315 316 317 316 316 316 315 316 317 316 317 316 315 315 316 316 315 315 315 315 315 315 315 315 316 315 316 316 317 317 317 317 317 317 317 317 317 316 315 315 315 315 314 315 315 315 316 317 318 319 320 319 318 316 316 315 316 316 315 316 316 316 318 320 321 322 325 327 328 326 324 321 317 315 314 312 310 309 306 304 305 305 305 305 305 306 307 307 307
319 321 324 334 331 319 317 317 316 317 316 315 316 316 316 316 317 316 316 315 315 315 315 315 315 316 315 315 315 315 315 315 316 316 316 316 316 317 316 317 316 316 316 317 317 316 315 314 315 315 314 314 315 315 315 316 316 317 319 320 319 318 317 316 315 315 315 315 316 315 315 317 318 321 325 327 328 326 324 320 317 315 314 311 310 309 306 305 305 305 305 305 306 306 306 307 307
318 319 327 331 319 317 320 317 318 318 316 316 315 316 315 316 317 316 316 316 316 315 315 315 315 316 315 316 315 315 315 315 316 316 316 316 316 316 316 316 316 316 316 317 317 316 314 314 314 314 315 315 314 315 315 315 316 316 317 318 319 319 318 317 316 315 315 314 315 314 314 315 316 319 324 326 326 325 323 319 316 315 314 311 310 308 306 305 305 305 305 305 306 306 306 307 307
319 319 322 321 316 317 319 317 319 317 317 317 315 315 316 316 316 316 316 316 316 315 315 316 315 316 316 316 315 315 315 315 316 315 316 316 316 316 316 316 316 316 316 316 316 316 315 314 314 315 315 316 315 315 314 315 315 315 316 317 318 319 318 317 316 316 315 314 314 314 315 315 315 320 326 326 325 324 321 317 315 316 314 312 310 308 306 305 305 305 305 305 305 306 306 307 307
320 320 317 317 317 317 318 318 318 317 316 315 315 316 315 315 316 316 315 316 316 315 316 316 316 316 316 316 315 316 316 315 316 316 316 316 316 316 315 316 316 316 316 316 316 315 314 314 314 315 315 316 316 315 315 314 315 315 316 316 317 318 318 318 317 317 316 315 315 315 315 315 315 320 326 326 324 322 320 317 316 316 314 312 310 308 307 305 305 305 304 304 305 306 306 307 307
319 321 317 317 318 316 318 317 316 316 315 315 315 315 314 314 315 315 315 315 316 316 317 316 316 316 316 316 316 315 315 315 315 315 315 315 315 315 315 315 315 316 316 316 316 315 314 315 315 315 315 315 316 316 316 315 315 315 315 316 317 318 318 318 317 317 317 316 315 315 315 315 315 317 322 323 322 320 318 317 316 315 314 312 310 308 307 305 305 305 304 304 305 306 306 307 307
318 320 316 315 316 315 316 315 315 316 315 316 315 313 313 314 314 313 314 316 317 317 317 316 316 316 316 316 315 314 314 314 315 315 315 315 315 315 315 315 315 315 316 317 316 316 315 315 316 316 316 316 316 316 316 316 315 315 315 316 316 317 318 318 318 318 317 317 316 316 316 317 316 315 316 317 317 316 315 315 314 314 313 312 311 309 308 306 305 304 304 304 305 306 306 306 306
315 315 314 313 314 314 315 315 315 315 314 314 314 313 313 314 314 313 315 316 317 317 316 316 316 316 316 315 314 314 313 314 314 314 315 314 315 315 315 314 315 315 315 317 316 315 316 316 317 316 316 317 317 317 317 317 316 316 316 316 316 317 318 319 320 320 319 318 317 316 316 316 316 316 316 317 316 315 314 313 313 313 312 312 312 311 308 307 305 304 304 304 305 306 306 306 306
314 313 313 313 313 314 314 314 315 314 314 313 313 314 313 312 313 314 316 317 317 317 316 316 316 316 315 314 314 313 313 314 314 314 314 314 315 315 315 315 314 315 315 316 316 315 316 316 316 316 317 317 318 318 318 318 317 317 317 317 317 318 319 320 321 321 320 320 319 318 317 317 317 317 318 318 317 316 314 313 312 312 312 312 312 312 310 308 306 304 304 303 304 305 305 305 305
313 313 314 314 313 314 314 313 314 314 314 314 313 313 313 312 313 316 316 317 317 316 317 317 316 315 314 313 313 313 313 314 314 314 314 314 315 315 314 315 314 315 315 315 316 315 316 316 316 315 315 316 317 317 318 318 318 318 318 319 319 319 320 321 322 322 322 322 322 321 320 319 319 318 319 318 317 317 316 314 314 313 312 312 312 312 311 309 307 305 303 303 303 303 304 304 304
313 313 315 315 314 315 315 313 313 313 314 314 313 315 317 315 315 317 317 317 317 316 317 317 315 313 312 313 313 313 314 314 313 314 314 314 314 314 314 314 315 315 315 315 315 315 316 316 315 315 314 314 315 316 318 319 319 320 320 320 321 322 323 323 323 323 323 323 324 324 323 322 321 320 320 320 319 319 318 318 316 315 315 314 313 313 313 311 308 305 303 303 303 303 304 304 304
315 312 313 315 316 318 316 312 313 313 313 313 313 316 322 321 316 316 317 317 316 316 317 316 313 312 312 312 313 313 313 313 314 313 313 313 313 314 313 314 314 314 315 315 315 315 315 315 314 314 314 314 315 317 318 319 320 321 321 322 322 324 325 325 325 325 325 325 326 325 325 324 323 322 321 321 321 320 320 320 318 317 317 315 315 315 314 313 310 306 304 303 303 303 303 304 304
315 312 315 317 315 322 320 312 313 315 314 312 313 317 322 322 316 316 317 316 315 315 316 314 312 313 312 312 312 312 312 312 313 312 312 313 313 313 313 313 314 314 314 314 314 314 313 313 313 313 313 315 316 318 320 320 321 322 322 323 324 324 325 326 327 327 327 327 327 327 326 326 325 324 323 323 323 323 322 321 320 320 319 318 317 316 316 315 313 308 304 303 302 303 303 303 303
319 314 323 324 315 322 322 312 313 317 315 311 313 318 320 318 315 316 317 316 315 314 314 313 311 313 312 312 311 311 311 311 311 312 312 313 313 313 313 313 313 313 313 313 312 312 313 313 313 314 314 315 317 318 321 322 323 323 324 324 324 325 326 326 327 327 327 327 328 327 327 326 326 325 325 325 325 325 324 323 322 322 322 321 320 319 317 316 315 311 306 303 302 302 302 303 303
325 316 323 327 318 318 320 315 314 313 314 312 313 317 318 317 315 316 317 316 316 314 313 312 311 312 312 311 310 309 310 310 311 312 312 313 313 313 313 313 312 312 311 311 311 312 313 314 315 315 315 315 316 317 319 322 323 324 325 325 325 325 325 326 326 326 326 327 327 327 327 327 326 326 326 326 326 325 325 324 324 324 323 323 322 321 319 317 317 314 309 305 303 302 302 302 303
328 320 318 323 319 316 318 320 316 312 315 315 314 314 316 317 314 315 317 316 315 313 313 313 311 311 311 310 309 309 309 310 310 311 311 311 311 311 311 311 310 310 310 311 311 312 313 315 316 315 315 315 315 316 318 320 322 323 324 325 325 325 325 325 325 325 326 326 326 326 326 326 326 326 326 326 326 325 325 325 325 324 324 324 323 322 321 319 318 317 313 309 307 305 304 303 302
326 323 319 321 320 317 318 320 318 316 318 318 317 316 316 317 313 313 316 315 313 313 313 312 311 310 309 308 308 308 308 309 308 308 308 309 309 309 309 309 309 309 309 310 311 312 313 314 315 315 315 315 315 316 316 317 320 322 324 324 324 324 324 324 324 324 324 324 324 325 325 325 325 326 326 326 325 325 325 324 324 324 324 324 324 323 322 321 320 319 317 314 313 310 307 305 304
321 320 320 321 320 319 317 318 316 314 316 318 318 317 316 318 316 313 314 314 312 313 313 311 310 309 307 307 306 306 306 306 305 306 307 307 308 308 308 309 308 308 309 309 310 311 312 312 312 313 313 314 314 314 314 315 318 321 323 323 323 323 323 324 324 323 323 324 324 324 324 324 325 325 325 325 325 325 324 324 324 324 324 323 323 323 322 322 321 320 319 318 317 315 312 309 307
316 316 317 318 317 317 316 318 317 312 314 319 317 316 318 318 317 314 312 313 312 311 311 310 308 307 306 305 304 304 304 304 304 305 306 307 307 308 308 308 308 308 308 308 309 309 310 310 310 310 311 311 311 311 312 313 316 319 320 321 321 322 322 322 322 322 322 322 323 323 323 323 323 324 324 324 324 324 324 324 323 323 323 323 322 322 322 321 321 320 320 319 318 316 314 312 309
313 315 316 317 317 317 317 317 317 312 313 320 317 315 318 317 316 313 310 312 311 308 308 308 306 305 304 304 303 303 303 303 305 306 306 307 307 308 308 308 308 308 308 308 308 308 308 308 308 308 309 309 309 310 310 311 313 315 316 318 319 320 321 321 321 321 321 321 321 321 322 322 322 322 322 323 323 323 322 323 323 322 321 321 321 320 320 320 320 320 319 319 318 317 315 313 311
315 316 316 318 319 318 319 318 317 315 315 321 320 316 317 317 315 312 309 310 308 306 307 306 305 304 303 303 303 303 304 305 306 307 307 308 308 308 309 309 309 308 308 308 308 308 308 308 307 307 308 308 308 308 309 309 310 311 313 314 316 317 318 319 319 320 320 321 321 321 321 321 321 321 321 321 321 321 321 321 321 320 320 319 319 319 319 319 319 319 319 318 318 317 315 314 312
318 318 317 320 319 318 321 320 319 318 315 318 319 316 318 318 315 312 308 307 306 305 306 305 304 303 302 302 303 304 304 305 306 307 308 308 309 309 309 309 309 309 309 308 308 308 308 308 308 307 307 307 307 307 307 308 308 310 311 312 313 313 314 315 315 316 317 318 318 319 319 319 319 319 319 319 319 319 319 319 319 319 318 318 318 319 318 318 318 318 318 318 317 316 315 314 312
322 322 319 319 319 318 320 319 319 320 318 317 316 319 326 323 316 314 310 308 306 305 304 303 303 302 302 302 302 303 304 304 306 307 307 308 308 309 308 308 309 309 309 308 308 308 307 307 307 307 307 307 307 307 307 307 307 308 309 310 311 311 311 311 311 312 312 313 314 314 315 316 317 317 317 317 318 317 317 317 317 317 317 317 317 317 316 316 316 316 317 317 316 316 315 314 313
323 325 322 318 320 320 318 318 319 321 322 318 315 321 330 329 323 316 312 310 308 305 304 303 302 301 301 301 301 302 303 304 305 306 307 307 307 308 308 308 308 308 308 307 307 306 306 306 306 307 307 307 307 307 307 307 307 307 306 307 307 308 308 308 308 308 308 308 309 309 310 311 312 313 313 314 315 315 315 314 314 315 315 315 314 314 314 314 315 315 315 315 315 314 314 313 312
320 322 322 320 319 319 318 318 318 322 322 317 315 320 324 327 327 318 313 313 309 305 304 302 302 301 300 300 301 301 303 303 305 305 306 307 307 307 307 307 307 307 306 306 306 306 306 306 306 306 306 306 307 307 307 307 307 307 306 305 305 306 306 306 306 306 306 306 306 306 306 306 306 307 307 308 308 309 310 310 311 311 311 311 312 312 313 313 313 313 313 313 313 312 312 311 311
323 321 322 323 319 319 321 318 317 320 319 318 319 317 317 321 321 316 315 315 310 306 304 302 301 300 299 300 300 301 302 303 304 305 306 306 306 306 306 306 306 306 306 306 305 305 305 305 305 305 305 306 306 306 306 306 307 307 306 306 305 305 305 305 305 305 304 304 304 304 304 304 304 304 304 304 304 304 305 305 306 307 308 309 310 311 312 312 312 312 312 311 311 311 310 309 309
323 319 319 320 317 319 321 317 318 318 314 320 323 315 315 321 321 318 316 314 312 308 305 303 301 300 299 299 299 299 300 302 304 304 305 305 305 305 305 305 305 305 305 305 305 305 305 305 305 305 305 305 305 305 305 305 306 306 306 306 305 304 304 304 304 304 304 304 303 303 303 303 303 303 303 303 303 303 303 303 303 304 305 306 308 309 309 310 310 311 311 310 310 310 310 308 308
317 314 318 322 321 321 319 315 318 317 314 320 323 317 317 323 326 321 314 315 316 309 305 303 301 299 299 298 298 299 300 301 302 303 304 304 304 304 304 304 305 305 304 304 304 304 304 304 304 304 304 304 304 304 304 305 304 304 305 304 304 304 303 303 303 303 303 303 303 303 303 303 303 302 302 302 302 302 302 302 302 302 302 303 304 305 306 307 308 309 309 309 310 310 309 308 307
311 315 321 324 325 324 321 320 320 317 319 323 321 318 317 320 328 324 315 316 315 309 305 303 300 299 299 298 298 298 299 300 302 302 303 303 304 304 304 304 304 304 304 304 304 304 304 304 303 304 304 303 303 304 304 304 303 303 303 303 302 302 301 301 301 301 301 302 302 302 302 302 302 302 302 302 302 302 302 302 301 302 301 301 301 302 302 303 304 306 307 308 308 308 308 308 307
312 321 323 321 325 324 322 323 321 318 324 325 319 316 315 319 326 320 312 312 311 309 307 302 300 299 298 298 298 298 299 300 302 303 303 303 303 304 304 304 304 304 304 304 304 303 303 303 303 303 303 302 302 302 302 302 302 302 301 301 301 300 300 300 300 300 300 300 300 301 301 301 301 301 301 301 301 301 301 301 301 301 301 301 301 300 300 300 301 302 303 304 306 306 306 307 306
317 321 321 321 322 319 319 322 320 320 323 318 315 316 315 319 320 310 305 306 306 307 305 301 300 299 298 298 298 299 300 301 302 303 303 304 304 304 303 303 303 303 303 303 303 303 303 303 302 302 302 302 301 301 301 300 300 300 300 299 299 298 298 298 298 298 298 298 298 299 299 300 300 300 300 300 300 300 300 300 300 300 300 300 300 300 300 300 300 300 300 301 302 303 304 305 305
316 318 321 322 320 318 320 321 316 317 320 315 312 315 318 320 314 305 301 301 300 302 302 301 299 298 298 298 299 300 301 303 303 303 304 304 303 303 303 303 303 302 302 302 302 302 302 302 301 301 301 301 300 300 299 299 299 299 298 298 298 297 297 297 297 297 296 297 297 297 298 298 298 299 299 299 299 299 299 299 299 299 299 299 299 299 299 299 299 299 299 299 300 301 301 302 302
314 318 319 319 322 322 321 320 317 317 321 317 312 315 321 320 311 302 301 299 298 300 300 299 299 298 299 299 300 302 302 303 303 303 303 303 303 302 302 302 302 302 302 301 301 301 301 301 300 300 299 299 299 298 298 298 297 297 297 297 296 296 296 296 296 295 295 295 295 295 296 296 296 297 297 297 297 298 298 298 298 298 298 298 298 298 298 298 298 298 298 299 299 299 299 299 300
313 314 316 316 322 322 317 319 319 318 320 319 317 318 317 312 305 301 301 299 298 299 298 298 299 298 299 300 301 303 303 303 303 303 303 302 302 302 301 301 301 301 301 300 300 299 299 298 298 297 297 297 297 296 296 296 296 296 295 295 295 295 295 294 294 294 293 293 293 293 293 293 293 294 294 294 294 295 295 296 296 296 297 297 297 297 297 297 297 297 298 298 298 298 298 298 299
314 313 320 320 317 318 319 319 316 314 317 318 318 318 312 307 307 304 302 301 299 299 298 298 298 298 299 300 302 303 303 303 302 302 302 301 301 301 301 301 300 300 300 299 298 297 296 296 295 295 295 294 294 294 294 294 294 294 294 294 293 293 293 293 293 292 292 291 291 291 291 291 291 291 291 291 291 291 292 292 293 293 294 294 295 295 296 296 297 297 297 297 297 297 297 298 298
318 317 320 317 313 317 321 320 318 317 317 317 318 318 314 313 312 306 303 303 301 300 299 298 298 298 299 301 303 303 302 302 302 302 301 301 300 300 300 300 300 299 297 296 296 295 295 294 294 294 293 293 292 292 292 292 292 292 292 291 291 291 291 291 291 291 291 290 290 290 290 289 289 289 289 289 289 289 289 289 289 290 290 291 291 292 292 293 294 295 296 296 296 296 296 297 297
315 316 315 314 316 320 319 318 319 319 317 318 321 319 316 317 315 310 307 306 303 301 301 299 298 298 300 302 303 303 303 302 302 301 301 300 300 300 300 299 298 297 296 295 295 294 294 293 292 292 291 291 291 290 290 290 290 290 290 290 290 290 290 289 289 289 289 289 289 289 289 289 289 288 288 288 288 288 288 287 287 287 288 288 288 288 289 289 290 291 292 293 294 295 295 296 296
309 312 313 315 318 320 319 316 318 319 316 317 319 317 319 321 318 315 310 305 303 303 303 301 299 300 302 303 303 304 303 302 302 301 301 300 300 299 298 298 297 296 295 294 293 292 292 291 291 290 290 289 289 289 289 289 289 289 289 289 288 288 288 288 288 288 288 288 288 288 288 288 288 288 288 288 288 288 288 287 287 287 287 287 286 287 287 287 287 288 288 289 290 291 292 293 295
313 315 315 315 314 316 317 314 316 320 318 318 316 315 320 320 313 313 310 304 303 304 303 301 299 302 304 304 304 304 303 302 302 301 301 300 299 298 298 297 296 295 294 293 292 291 291 290 290 289 289 289 289 289 288 288 288 288 288 288 288 288 288 288 288 288 288 288 288 288 288 288 288 288 288 288 288 288 288 287 287 287 287 287 287 286 286 286 286 286 286 287 287 288 288 289 290
320 321 318 317 316 316 316 314 315 317 316 318 316 315 320 315 307 308 307 303 302 301 301 300 300 303 305 304 305 304 303 303 302 301 301 299 298 297 297 297 295 294 292 291 291 290 290 290 289 289 289 289 289 288 288 288 288 288 288 288 288 288 288 288 288 288 288 288 288 288 288 289 288 288 288 288 288 288 288 288 288 288 287 287 287 287 287 287 286 286 286 286 286 286 287 287 287
Wind_Speed
6 5 6 4 5 4 4 3 2 3 4 2 2 1 2 3 1 1 1 2 1 2 1 2 2 3 2 1 3 4 3 4 4 2 1 3 3 1 0 1 1 0 2 7 10 12 15 17 17 17 16 17 17 16 16 16 16 15 14 13 12 13 14 14 14 14 15 14 13 12 10 9 7 6 5 5 6 7 8 8 8 8 8 9 9 8 7 7 6 5 5 4 3 4 3 4 5
5 4 4 2 4 2 2 4 3 3 5 3 2 2 2 3 2 3 5 4 3 1 2 2 1 2 3 3 4 3 3 6 6 3 2 3 2 2 1 2 1 2 2 4 8 11 13 16 17 17 17 16 16 16 16 16 16 15 14 14 13 14 14 14 14 14 15 14 12 11 9 8 8 7 6 6 6 8 9 9 9 9 10 10 10 9 8 7 7 7 7 5 4 6 5 6 6
4 3 2 1 1 3 2 5 3 2 5 3 2 3 1 1 1 5 8 5 2 2 1 1 1 1 1 1 2 1 2 5 6 5 3 3 2 2 2 3 2 3 4 3 6 9 12 14 17 17 17 17 16 15 15 15 15 14 13 13 14 14 15 15 14 15 15 14 12 11 10 9 8 7 7 7 7 8 10 10 10 10 10 11 10 9 9 8 8 8 8 6 5 7 7 7 8
3 1 1 1 2 4 4 4 3 4 4 2 1 4 2 3 5 7 7 4 2 3 0 0 1 2 1 2 1 3 4 4 4 4 3 3 3 4 5 3 3 4 5 4 4 7 10 13 16 17 17 17 17 16 15 15 14 13 13 13 14 14 15 15 15 16 16 15 13 12 11 9 8 7 7 7 8 8 9 9 9 10 10 10 10 10 9 9 9 9 9 7 6 7 9 9 9
3 3 3 2 2 2 3 3 2 4 3 4 2 4 5 6 6 6 4 1 4 2 1 1 1 2 4 5 3 2 3 2 2 3 4 4 4 5 5 3 3 4 5 5 5 5 8 12 15 16 17 17 17 17 17 16 15 14 13 13 14 15 15 15 16 16 17 16 13 12 11 9 7 6 5 7 9 8 8 8 9 10 10 10 10 10 10 9 10 10 9 7 7 8 10 10 10
3 3 4 5 5 2 3 3 1 1 4 5 3 5 6 7 6 3 1 3 4 1 0 1 1 2 3 4 4 3 2 2 3 3 4 4 3 4 5 4 3 4 5 6 6 5 6 10 13 16 17 18 18 18 18 17 17 16 15 14 15 15 15 15 16 17 17 15 13 12 11 9 8 7 6 7 9 8 7 7 8 10 11 10 10 11 10 10 11 10 9 10 9 9 11 11 11
2 2 3 5 5 3 4 3 2 3 3 5 4 6 7 8 6 1 3 3 1 1 2 1 1 2 3 2 3 4 5 7 6 4 4 4 4 4 5 5 3 2 5 7 7 6 6 9 12 14 16 18 18 19 18 18 18 17 16 16 16 16 16 16 16 17 17 16 14 13 12 9 8 9 8 9 10 8 7 8 8 10 11 11 11 12 12 12 12 11 12 12 10 9 11 12 12
3 2 4 3 3 4 4 2 3 3 1 3 4 5 7 6 5 2 1 1 1 2 3 3 1 1 2 2 3 4 7 8 8 6 4 3 4 4 5 6 5 2 4 7 9 9 8 8 10 13 15 17 18 19 19 18 18 18 17 17 17 17 17 17 17 17 17 16 15 14 12 10 9 10 11 11 11 9 9 9 9 10 10 11 12 12 13 14 15 14 13 11 9 9 11 11 11
5 4 3 3 2 3 3 2 2 2 3 4 3 3 4 4 4 2 0 1 2 2 3 5 3 1 4 4 6 7 7 7 7 8 5 4 4 4 6 7 6 3 3 6 9 10 10 10 10 11 14 16 18 19 19 18 18 18 18 18 18 18 18 18 18 18 17 16 16 15 14 11 11 12 13 13 12 12 10 9 9 10 10 11 12 13 14 16 15 14 11 8 8 9 9 9 9
5 5 2 3 3 3 3 2 2 1 5 5 4 4 0 2 3 3 1 2 2 3 2 4 5 4 5 6 9 8 7 6 7 9 6 5 5 5 5 7 7 5 3 4 8 10 11 11 11 11 13 15 17 18 18 18 18 18 18 18 19 19 19 19 19 18 17 16 16 16 15 13 13 14 14 14 14 14 12 10 10 10 10 11 13 15 15 16 15 14 10 6 7 7 7 7 7
4 5 2 3 4 2 1 3 4 4 6 6 5 4 1 2 2 2 1 2 3 3 2 3 4 5 5 6 8 9 10 8 7 9 8 7 7 6 5 7 8 6 5 4 6 9 11 13 13 12 13 14 16 17 18 19 18 18 18 18 19 19 20 20 19 19 17 16 16 17 16 14 15 15 16 16 15 15 14 12 12 10 10 11 13 14 15 16 15 15 10 4 6 6 6 6 6
3 4 3 4 3 2 2 3 5 5 6 4 3 2 1 1 1 1 2 2 4 5 3 2 2 2 2 3 8 13 13 9 6 9 10 9 8 7 6 7 9 8 6 5 6 8 10 12 14 14 13 14 15 17 18 19 19 18 18 18 19 19 20 20 20 19 19 18 17 17 17 15 15 16 17 17 18 16 15 14 13 11 11 12 12 12 13 13 13 12 8 4 5 6 6 6 6
3 1 4 3 2 2 2 2 5 5 5 2 3 2 1 3 3 4 3 3 5 5 3 3 1 2 3 6 12 14 9 6 5 8 10 11 10 9 8 8 10 9 7 6 7 7 9 11 13 15 14 14 15 16 17 19 19 19 19 18 19 19 19 20 20 20 19 19 19 18 17 16 16 17 18 19 19 17 15 15 13 11 12 13 11 11 10 11 11 10 6 5 6 6 7 7 6
4 1 4 1 0 0 2 2 3 2 3 4 3 2 1 3 5 5 4 4 6 4 1 3 4 4 4 6 8 7 7 10 12 12 12 12 12 11 10 10 11 11 10 9 8 8 9 10 12 14 15 16 16 17 17 18 19 20 19 19 19 19 19 19 19 20 20 20 21 20 19 19 18 19 20 20 20 19 17 16 13 12 13 13 12 11 10 10 11 8 6 7 7 7 8 7 7
4 2 4 2 2 3 2 2 1 4 2 5 3 4 3 5 5 6 5 4 5 5 4 5 5 4 3 3 8 11 13 18 19 18 15 13 13 12 13 14 14 13 12 11 10 10 10 11 12 13 15 17 18 18 18 18 19 20 20 20 20 20 19 19 19 19 20 21 21 22 21 20 20 21 21 21 21 21 20 17 14 13 13 13 13 12 11 10 9 7 7 8 8 9 8 8 7
3 3 4 3 2 2 2 2 1 3 3 4 4 6 4 6 5 5 6 5 8 10 9 9 8 9 9 11 17 20 20 21 21 20 17 15 15 15 16 16 16 15 13 13 13 12 12 12 13 13 15 17 18 19 19 19 19 20 20 21 21 21 20 20 20 19 20 21 22 22 21 21 21 22 22 23 22 22 21 17 15 14 14 14 13 13 12 11 8 7 9 9 9 10 9 9 8
3 3 4 2 1 1 3 3 1 1 6 6 8 8 3 5 5 4 6 7 11 14 16 17 15 16 18 20 22 21 21 20 18 17 17 18 19 19 19 18 17 16 15 15 15 15 15 14 14 15 15 16 18 19 20 20 20 20 21 22 22 22 21 21 21 20 20 21 22 22 22 22 23 23 23 24 23 23 21 17 16 15 14 15 14 13 13 11 9 9 10 10 10 10 10 9 8
2 3 3 0 2 3 4 6 2 1 4 6 10 7 2 5 7 6 6 8 13 16 22 25 22 23 23 23 21 19 19 17 15 15 16 17 19 21 21 20 19 18 18 18 17 17 17 16 16 16 17 17 18 19 20 21 21 22 22 23 23 23 23 23 22 22 22 22 22 23 23 24 24 24 24 24 24 23 21 18 17 15 15 15 15 15 14 13 10 10 12 11 11 11 10 9 8
2 3 2 3 5 5 5 5 4 2 4 8 10 7 4 7 9 8 5 9 13 13 23 28 26 27 25 22 18 18 19 18 18 18 18 18 19 21 22 22 23 22 21 20 19 17 17 17 17 18 18 18 19 19 20 21 22 23 23 24 24 24 24 24 24 24 23 23 23 23 24 25 24 24 24 25 24 23 21 19 17 16 16 16 16 16 15 14 12 12 13 13 13 12 11 11 9
2 3 1 6 7 5 8 10 10 7 7 8 10 9 10 13 12 8 6 11 13 10 18 22 25 30 29 25 22 22 21 19 20 21 21 20 20 22 22 23 24 23 22 21 19 18 19 18 17 17 18 19 20 20 21 22 22 23 24 25 25 25 26 26 26 25 25 24 24 24 24 25 25 24 25 26 25 24 23 21 19 18 17 17 17 17 16 16 15 14 14 14 14 13 13 12 11
3 4 4 6 5 3 11 14 14 12 10 11 13 12 14 16 12 8 7 9 10 13 20 21 24 32 32 29 27 25 24 23 24 24 23 23 22 22 22 22 22 21 21 21 20 19 19 18 16 16 17 19 21 21 22 22 22 23 24 25 26 26 26 27 27 27 26 26 25 24 24 25 26 26 26 27 27 26 24 22 21 19 18 17 17 18 18 17 16 15 15 15 14 14 14 13 12
3 5 8 8 4 3 11 14 12 14 14 16 15 9 11 13 11 10 8 5 11 21 27 27 28 31 30 28 27 26 24 24 24 23 23 22 20 19 20 20 20 20 20 20 19 18 17 16 15 15 15 17 19 21 22 22 22 23 24 24 25 26 27 28 29 29 28 27 26 26 25 25 26 26 26 27 28 27 25 24 22 21 19 18 18 19 19 19 18 16 15 16 16 15 15 15 14
4 4 7 12 11 9 14 15 13 16 15 14 12 10 13 13 12 12 10 15 24 30 30 28 28 27 26 26 24 23 22 22 22 21 21 19 19 19 21 21 20 19 19 18 18 17 16 15 14 14 14 15 16 18 21 23 23 24 23 24 25 26 26 28 29 30 29 28 28 27 26 27 27 27 27 28 28 28 27 25 24 23 21 19 18 19 20 20 19 17 16 17 18 17 16 16 16
6 5 6 11 13 11 15 16 16 18 17 18 16 15 16 13 10 9 16 29 32 28 25 24 24 24 25 25 24 23 22 22 20 19 19 19 19 20 22 23 22 21 19 17 17 16 15 14 14 15 14 14 14 15 18 21 23 24 24 24 25 25 26 27 28 28 29 29 29 29 28 28 28 29 29 29 29 29 28 27 26 25 22 20 19 19 21 21 20 18 17 19 19 18 18 18 17
6 5 6 7 9 10 14 15 19 22 22 23 19 17 19 20 15 11 24 32 24 19 20 21 22 24 24 23 24 23 22 20 18 17 16 17 17 18 21 23 22 21 20 18 17 15 13 13 14 15 15 15 15 15 16 17 20 23 24 25 25 25 26 26 26 27 28 28 29 30 30 30 30 30 30 30 30 29 28 27 27 26 24 22 20 20 21 22 21 20 18 20 21 20 19 19 19
4 4 4 6 10 13 15 18 24 23 21 19 12 16 23 23 15 12 22 21 14 17 19 20 23 23 21 21 21 19 17 15 14 13 12 14 17 19 20 20 21 20 19 18 17 14 12 12 13 13 14 15 16 17 17 16 18 20 22 24 25 25 26 25 26 26 26 26 27 28 29 30 31 31 30 30 30 30 29 28 27 26 25 23 21 20 22 22 22 21 20 21 22 21 21 20 20
3 4 8 10 12 17 17 19 27 24 20 16 9 13 20 15 5 7 16 13 14 21 21 20 21 20 18 17 15 13 13 11 9 10 12 15 17 19 18 16 17 17 18 18 16 14 13 13 13 12 13 14 16 18 18 17 18 18 19 21 23 24 25 25 26 26 26 26 26 26 27 28 29 31 31 31 31 31 30 29 28 28 26 25 22 21 22 23 23 22 21 22 23 23 22 21 21
5 7 10 13 13 18 20 19 22 17 11 9 6 8 13 5 2 10 17 13 15 22 23 23 20 17 14 12 9 9 10 10 9 11 14 16 16 15 15 13 12 13 15 16 16 16 17 16 15 14 12 12 14 16 17 18 18 18 19 20 21 22 23 25 26 26 26 25 25 25 25 26 27 29 31 32 32 32 32 31 30 30 28 26 24 22 22 24 24 23 22 23 24 25 24 23 22
8 6 5 10 9 12 19 14 11 6 3 4 4 2 9 1 7 15 16 16 19 22 25 25 19 14 12 9 8 7 7 8 10 12 12 11 10 10 10 10 10 11 12 14 15 16 17 17 16 15 13 13 13 13 14 16 17 17 18 20 20 22 23 24 25 25 25 25 25 24 24 24 25 27 29 30 31 31 31 31 31 31 30 27 25 24 22 23 25 25 24 25 26 27 27 25 24
8 4 1 6 6 6 11 6 3 3 4 5 7 0 7 6 13 17 14 18 20 22 27 22 16 14 11 7 6 4 4 5 7 8 6 6 6 6 7 8 9 10 11 12 14 14 15 16 16 15 14 12 11 11 12 13 15 16 17 18 20 22 23 24 24 24 24 25 25 25 25 24 25 25 26 27 27 27 28 28 28 28 28 27 26 25 24 23 25 27 26 26 28 28 28 27 27
4 2 1 3 2 5 9 6 2 3 5 7 9 2 6 8 15 15 14 18 17 21 26 18 15 14 10 4 2 1 2 2 2 2 2 3 4 5 6 7 9 10 12 14 15 15 15 15 15 14 12 9 7 8 10 11 12 14 15 16 18 20 22 23 24 24 25 25 25 25 26 25 25 25 25 25 25 25 25 25 25 25 25 26 26 26 26 25 25 26 27 27 28 29 29 28 28
2 1 3 3 2 4 11 11 3 3 4 6 9 2 5 8 12 14 17 22 19 21 23 16 15 12 6 3 3 4 3 3 2 1 1 3 4 6 7 9 11 12 13 13 14 13 12 12 11 11 9 8 6 6 8 9 11 12 13 15 16 18 20 21 22 22 24 24 25 25 25 25 25 25 25 25 25 25 24 24 23 23 23 25 26 26 26 26 25 26 27 27 28 29 30 30 30
3 1 4 3 3 2 7 9 1 4 1 2 4 2 4 5 10 18 22 25 25 22 22 18 12 7 5 5 6 6 5 5 3 3 3 3 4 6 7 9 10 10 11 10 9 8 7 7 7 7 7 7 8 7 7 8 10 11 12 14 14 16 17 18 19 20 21 22 23 24 24 24 24 24 24 24 25 25 25 24 23 23 24 25 25 26 26 26 26 26 27 27 27 28 29 31 31
3 1 3 4 4 3 3 6 4 3 3 1 3 3 5 8 13 23 24 23 24 21 21 18 8 5 6 8 8 8 7 6 7 7 5 4 4 5 6 6 6 6 6 5 4 2 2 3 4 5 6 7 8 7 7 7 9 10 11 12 13 14 15 16 16 17 18 19 20 21 22 23 23 24 24 24 25 25 24 24 24 24 25 25 26 26 27 27 27 27 27 27 27 27 28 29 31
5 4 3 4 3 4 4 5 5 6 5 4 5 5 8 10 11 20 23 19 18 17 18 13 4 6 8 10 11 12 12 11 11 10 7 6 4 4 4 3 3 3 3 3 3 1 1 1 2 4 5 6 7 7 7 7 7 8 9 11 12 12 13 14 15 16 16 17 18 19 20 21 22 23 24 24 24 24 25 24 24 25 25 26 27 28 28 29 29 28 27 27 27 28 28 28 29
7 6 4 4 4 5 6 6 5 4 4 6 7 6 8 9 9 16 22 18 12 13 12 5 4 9 12 14 15 16 16 16 15 12 10 9 7 7 6 7 7 6 6 5 3 1 1 1 2 3 4 5 6 7 7 7 7 7 8 9 10 11 12 13 14 14 15 16 16 17 18 19 21 22 23 23 23 24 25 25 25 26 26 27 28 29 30 30 29 29 28 28 29 29 30 30 30
3 2 3 5 5 6 5 6 7 1 1 7 6 4 6 8 10 15 20 16 12 12 4 7 11 14 16 18 19 19 19 19 17 16 16 15 14 13 12 12 11 10 10 8 6 6 7 6 5 4 2 2 3 4 5 6 6 7 8 8 9 10 11 12 13 13 14 14 15 16 17 18 19 20 21 22 23 24 24 25 26 26 27 28 29 30 30 30 29 29 29 29 30 31 32 31 31
2 3 4 6 5 7 7 6 6 1 1 5 3 4 8 10 10 12 14 11 11 10 7 15 17 18 18 19 20 20 20 19 19 20 21 21 21 21 20 20 19 19 18 16 14 14 13 12 11 10 8 6 4 2 1 2 3 4 6 8 9 10 10 11 11 12 12 13 14 15 16 17 18 19 19 20 21 23 24 24 25 26 26 27 29 30 30 30 30 29 29 30 31 32 32 32 32
3 3 2 4 4 4 7 5 4 2 0 4 4 4 8 11 8 8 12 9 11 13 16 17 18 20 18 19 19 20 21 21 23 25 26 27 27 27 27 28 28 27 26 24 23 21 20 20 18 16 14 12 11 9 7 5 3 2 3 5 7 9 10 10 11 11 11 12 13 13 14 15 16 17 18 19 20 21 22 23 24 25 26 27 28 29 30 30 30 30 31 31 32 33 33 33 33
4 4 3 5 4 1 4 5 4 3 1 2 4 5 6 9 4 7 11 12 16 18 21 20 19 21 19 19 20 21 23 24 26 27 28 29 29 29 30 30 29 28 28 28 27 27 26 26 24 21 19 17 16 14 12 10 8 5 4 3 4 5 6 7 9 10 11 12 13 13 13 14 15 16 17 18 19 20 22 23 23 24 25 26 27 28 29 29 29 30 31 32 33 35 35 34 34
4 5 6 5 5 5 5 4 5 4 4 2 3 5 4 5 3 3 5 11 14 15 19 20 18 20 19 19 20 21 23 25 26 28 28 29 29 29 29 29 28 28 29 29 29 28 28 27 26 24 22 21 19 18 16 14 11 9 6 5 4 4 4 4 4 6 8 9 11 12 13 14 15 17 18 19 19 20 22 23 24 24 24 25 26 27 28 28 28 29 30 32 33 34 35 35 34
4 5 8 9 7 6 4 2 5 4 4 3 4 4 4 5 4 3 4 5 7 9 14 15 15 17 18 19 20 21 23 24 26 28 28 29 29 28 28 28 27 28 29 28 28 27 26 26 25 24 23 22 21 20 19 17 15 13 11 8 6 6 5 5 4 4 4 5 7 8 11 13 15 16 18 20 21 22 23 24 25 26 26 26 25 25 26 27 28 29 29 31 33 33 34 35 35
3 5 6 7 4 3 2 2 2 1 3 3 3 1 5 6 5 4 5 4 5 6 9 11 13 15 16 18 19 20 22 24 26 27 27 28 27 27 27 27 27 28 27 26 25 25 25 24 24 23 23 23 22 21 20 19 18 17 16 14 11 9 9 9 9 8 8 7 5 5 6 8 10 12 14 16 18 20 22 24 25 26 26 26 25 25 25 25 26 27 28 30 31 32 33 35 35
3 4 4 6 5 5 5 4 2 3 2 4 2 3 3 5 5 4 6 5 4 5 6 7 10 13 15 16 18 20 21 23 25 26 26 26 26 26 27 26 26 25 24 23 23 23 23 23 23 22 22 22 22 21 20 19 19 19 18 16 14 12 11 11 10 10 10 10 9 9 7 5 4 5 6 8 10 12 15 18 20 22 23 24 25 25 25 25 25 25 26 27 29 30 31 33 34
6 5 6 6 5 6 5 4 2 1 1 5 4 2 2 5 5 2 3 5 3 4 4 4 7 11 14 15 16 18 20 22 24 25 25 25 25 25 25 24 23 22 22 21 22 22 22 21 21 20 21 22 21 20 20 20 20 19 18 17 16 14 13 12 11 11 11 11 11 11 11 10 8 6 5 5 5 7 8 10 13 16 19 21 23 24 25 26 26 26 26 27 28 29 30 30 32
4 5 5 4 5 4 4 4 2 2 1 5 6 4 2 4 5 3 1 3 5 4 3 4 8 11 12 14 15 17 19 21 22 23 24 24 23 23 22 21 20 20 20 20 20 20 20 20 19 19 20 20 19 19 18 18 18 18 18 18 17 16 15 14 13 12 12 12 12 11 11 11 11 10 9 9 8 8 7 7 8 10 12 15 18 21 23 25 26 27 28 28 29 30 30 30 31
5 6 5 6 5 4 4 2 3 2 3 6 8 8 5 3 5 3 2 2 4 8 5 5 8 11 12 13 14 16 18 20 21 22 22 22 21 20 18 18 18 18 17 17 17 18 18 18 18 18 18 17 17 16 16 16 16 16 16 16 15 15 14 13 13 13 13 13 13 12 12 12 12 12 12 12 12 12 11 10 9 8 9 10 13 15 19 21 23 26 27 29 30 31 31 31 31
6 5 4 3 4 4 4 4 3 1 5 6 5 5 5 3 4 2 3 6 1 6 8 9 10 12 13 13 15 17 18 19 20 20 20 19 18 16 15 15 15 14 14 14 15 15 15 15 15 15 15 14 14 14 14 14 14 14 14 14 13 13 12 12 12 13 13 13 13 12 11 11 11 11 11 12 13 14 14 14 13 12 11 10 11 13 14 17 19 22 24 27 29 30 31 31 32
5 4 5 3 2 3 3 3 1 3 6 4 2 5 2 5 2 4 6 9 9 2 9 14 16 16 15 15 16 17 17 18 18 17 17 15 14 13 12 12 11 11 12 12 12 12 12 12 11 11 12 12 12 12 12 12 11 12 12 12 13 13 12 12 13 13 12 13 13 12 12 12 12 11 12 12 13 13 14 15 15 15 15 14 14 14 15 16 17 19 22 24 26 28 29 31 32
4 5 5 4 2 1 3 4 2 4 5 3 1 3 2 4 2 5 6 7 8 6 14 19 20 19 17 16 17 17 17 17 16 15 13 11 11 10 9 9 9 9 10 10 10 10 9 9 9 10 10 10 9 9 9 9 9 10 10 11 11 11 12 13 13 13 13 13 13 13 13 13 13 13 13 13 14 14 14 14 15 15 16 16 17 17 17 17 18 19 21 22 24 25 27 28 30
4 4 5 5 4 4 4 4 3 4 5 4 2 1 2 3 2 4 4 6 10 15 19 19 19 18 17 17 17 17 17 15 13 11 10 9 8 7 7 7 7 7 7 7 7 7 7 7 7 7 7 7 7 7 7 8 9 10 10 10 11 12 12 13 13 14 14 14 14 14 13 13 13 13 13 14 14 14 14 14 15 15 15 16 16 17 17 17 18 19 21 22 23 24 25 27 28
2 3 4 3 4 5 2 3 5 3 3 3 2 2 2 2 1 3 3 7 11 14 16 17 17 16 17 17 17 17 15 13 11 8 7 6 6 5 5 5 5 5 5 5 4 4 4 4 5 5 5 5 5 5 6 7 8 9 9 10 11 11 12 12 13 14 15 15 16 15 14 14 14 14 14 14 14 14 14 15 15 15 15 15 16 16 17 17 17 17 18 21 23 23 25 26 27
2 3 3 4 4 5 2 3 0 3 1 4 1 2 2 1 1 2 3 5 7 8 10 13 14 14 15 16 17 15 12 10 8 6 4 4 3 3 2 3 4 4 4 3 2 3 3 4 5 5 5 5 5 5 5 6 7 8 8 9 9 10 11 12 13 14 15 16 16 16 16 15 15 15 16 16 16 15 15 15 15 16 16 16 16 16 17 17 17 17 16 17 19 21 23 25 26
4 3 4 3 1 4 4 1 2 2 2 4 1 3 3 1 2 1 1 2 3 2 4 9 10 12 14 16 16 13 9 7 5 3 2 2 2 1 1 3 3 2 1 1 2 3 4 4 5 5 5 5 5 5 5 6 6 7 7 7 8 9 10 11 12 13 13 14 15 16 17 17 17 17 18 18 18 18 18 17 17 17 16 17 17 18 18 18 18 18 17 17 17 18 20 21 23
4 3 2 3 1 1 1 1 2 1 3 4 4 4 3 3 4 4 5 6 4 4 5 6 8 12 15 16 14 10 7 5 3 2 2 2 2 2 1 2 1 1 1 1 2 4 4 5 5 5 5 6 6 6 6 7 7 8 8 8 8 9 10 10 11 12 12 13 14 15 16 17 17 18 19 20 20 21 21 21 21 20 19 18 18 18 18 18 18 19 19 19 18 18 19 19 18
3 2 1 1 2 3 2 2 3 3 3 4 5 5 3 4 5 6 8 8 8 7 6 6 10 16 18 16 11 7 6 5 4 3 4 4 4 4 3 3 2 1 1 1 3 4 5 6 6 7 8 8 8 8 9 9 9 9 9 9 9 9 10 10 11 12 12 13 14 14 15 16 17 18 19 20 21 22 22 23 23 23 23 22 21 20 20 19 19 19 19 19 20 20 21 20 19
2 1 0 1 1 1 1 1 3 3 3 3 4 6 5 4 3 6 9 8 9 9 7 8 15 19 19 14 6 4 6 6 5 5 6 6 6 6 5 4 3 2 1 2 3 4 5 6 7 8 9 9 10 11 11 11 11 11 11 11 11 12 12 12 13 13 14 15 15 16 17 18 18 19 20 21 21 22 23 24 24 25 26 26 26 26 25 24 23 22 21 20 21 21 22 22 22
5 4 3 3 3 1 2 4 1 2 3 3 4 6 5 4 2 4 8 8 9 12 12 13 19 20 16 11 6 6 8 8 8 7 7 8 7 7 6 5 4 2 1 0 2 3 4 5 6 7 8 9 11 12 12 13 14 14 14 15 15 16 16 17 18 19 20 20 21 21 22 22 22 23 23 24 24 24 25 25 26 26 27 27 28 29 29 29 28 28 27 25 23 23 23 23 23
Wind_Direction
311 308 303 305 308 293 330 3 63 7 68 74 334 64 231 246 199 130 267 285 277 237 282 335 287 244 264 265 244 262 230 201 192 135 218 206 140 163 162 353 281 231 180 182 188 188 194 197 199 204 208 211 213 213 212 212 213 212 210 207 203 200 196 192 189 185 184 183 182 179 178 178 181 189 195 202 199 190 181 177 174 168 160 150 147 150 164 172 177 185 184 188 189 192 195 178 164
318 308 310 293 311 322 360 29 84 352 48 59 336 160 244 324 30 175 210 216 199 207 24 352 332 253 263 272 275 295 270 254 230 223 250 195 173 199 173 333 278 218 223 196 194 193 197 200 201 204 208 211 214 216 216 215 217 217 213 209 205 203 202 200 196 194 190 188 188 184 185 188 190 198 209 218 216 203 188 179 173 169 164 156 153 156 170 182 187 193 189 192 207 209 209 202 187
330 310 315 240 346 66 63 34 85 55 71 82 295 253 298 10 235 219 215 220 183 130 59 350 352 278 267 308 278 230 279 282 234 231 251 224 236 234 265 301 263 218 227 227 205 202 201 203 205 206 209 212 215 218 219 219 221 221 219 214 209 207 205 203 200 199 195 193 193 190 193 198 203 215 226 226 221 211 196 186 176 170 165 160 162 165 175 184 192 200 193 196 219 222 219 218 207
350 17 28 160 80 59 60 46 111 108 108 151 270 276 272 193 220 235 240 258 169 138 82 56 360 277 270 323 277 245 271 271 214 222 265 275 286 285 296 290 254 235 222 237 228 214 209 206 208 209 211 213 217 221 222 224 225 226 226 220 216 213 210 206 204 202 198 197 196 195 200 207 221 236 241 223 208 201 193 186 176 170 164 163 170 174 183 191 201 208 200 207 233 233 226 224 223
18 57 51 50 72 51 75 73 94 96 162 181 146 268 254 211 214 238 268 258 172 154 30 111 357 287 277 284 262 251 261 234 221 259 302 308 302 304 311 304 263 249 226 235 240 231 219 212 211 212 214 216 218 222 225 227 228 228 229 226 223 221 217 212 208 206 203 201 198 199 204 211 225 235 230 203 191 186 183 183 175 172 169 169 178 182 186 198 214 217 210 225 245 241 233 229 234
47 74 56 50 65 75 89 67 25 320 225 171 157 249 243 223 212 212 50 130 164 152 136 168 352 305 286 283 261 260 264 270 290 297 309 312 313 326 332 329 293 248 232 229 237 244 230 219 216 215 216 218 221 224 227 228 230 230 230 228 225 225 222 218 214 210 208 205 203 206 210 216 221 219 209 189 185 184 183 185 180 179 181 182 188 194 198 211 223 226 233 252 257 245 239 235 241
78 82 46 59 56 43 89 108 198 257 242 172 179 222 225 220 198 113 55 117 155 191 180 221 323 320 297 304 275 275 285 277 277 293 302 309 324 336 352 352 332 262 234 226 229 237 239 229 220 219 218 220 222 226 229 230 232 232 232 230 225 224 223 221 218 215 213 208 208 213 215 220 221 218 213 197 194 201 201 192 192 190 191 198 202 209 217 227 238 249 260 267 262 245 240 238 243
75 58 41 77 40 29 88 112 226 221 242 218 217 215 215 201 162 96 59 135 284 242 197 214 236 353 297 285 267 284 303 286 268 268 280 303 322 327 348 354 341 315 237 225 224 226 236 236 227 224 221 222 223 226 230 232 233 233 233 232 228 226 225 223 220 219 216 212 212 215 216 217 217 221 221 214 207 210 209 199 202 205 206 215 220 226 233 240 249 258 262 262 252 242 240 240 244
49 40 43 75 63 30 50 347 294 235 262 282 276 247 211 154 123 110 142 296 308 283 241 218 199 292 300 294 284 290 306 296 264 256 261 284 296 305 331 348 344 331 264 229 224 224 228 235 235 229 225 225 225 227 230 232 234 235 234 232 231 229 228 227 223 222 218 214 215 218 219 214 214 221 223 224 219 213 212 210 214 219 223 230 236 242 245 250 257 263 260 243 233 235 236 238 241
40 39 56 75 77 36 5 303 312 282 268 283 279 272 300 99 104 102 72 318 327 10 336 223 208 256 295 301 294 302 309 300 265 250 256 274 280 283 314 342 343 334 296 247 230 226 225 230 237 236 231 228 228 229 230 232 235 236 235 233 233 232 230 230 228 225 221 218 218 220 221 215 214 219 223 225 224 219 218 224 232 237 241 243 246 251 254 259 264 269 266 228 222 232 231 234 235
33 23 49 74 64 48 350 265 285 283 282 302 290 273 5 51 93 87 38 327 316 18 39 202 220 256 286 292 289 301 306 303 264 245 259 273 272 266 291 326 336 333 307 271 242 231 227 227 232 237 237 233 232 232 231 233 236 237 238 236 235 234 232 231 230 228 226 224 223 224 224 221 218 219 223 226 227 224 222 230 244 255 263 261 259 262 263 264 263 264 266 223 217 230 226 229 227
36 355 44 86 99 175 205 253 277 283 300 315 283 265 360 6 61 356 313 326 317 346 349 199 214 279 291 284 290 300 307 310 269 253 264 268 262 256 278 311 322 321 304 280 256 242 234 230 229 233 238 239 238 236 234 234 238 238 239 239 238 238 235 233 231 229 227 227 228 230 230 229 225 223 226 228 231 230 226 232 245 262 276 273 269 270 268 267 261 258 262 234 225 227 221 220 214
54 45 71 91 170 180 192 245 274 307 329 288 234 253 315 330 343 316 301 312 307 333 344 181 214 299 277 282 294 301 315 336 303 278 271 264 259 252 268 298 309 306 297 285 269 253 242 236 231 231 235 240 242 241 239 237 239 240 239 240 240 240 238 236 233 230 228 227 228 231 232 232 229 226 226 229 234 236 233 238 248 265 279 279 275 272 271 269 261 259 255 232 227 219 213 211 209
51 96 90 93 287 142 196 261 304 10 329 276 271 275 285 322 324 314 308 307 306 327 312 232 271 285 282 289 295 305 333 334 320 306 288 268 259 255 267 288 298 296 291 287 276 262 250 243 236 232 233 236 241 243 242 241 241 242 241 240 240 240 240 239 236 231 228 228 228 230 231 233 231 226 226 229 235 238 241 246 253 266 278 281 279 274 273 266 259 257 238 224 219 211 210 209 211
53 43 88 103 13 347 238 252 326 98 254 267 305 307 310 323 313 304 299 291 305 319 295 266 266 273 279 272 290 306 315 313 309 305 295 277 264 260 271 283 291 291 289 288 283 271 258 249 242 235 233 233 236 240 243 244 243 244 243 242 241 240 240 239 237 233 230 229 230 231 233 234 232 227 226 231 236 240 243 248 255 266 275 278 275 272 270 263 258 248 229 223 216 211 212 211 213
55 42 71 66 354 330 254 228 101 87 272 267 319 313 313 317 305 292 296 289 294 303 296 277 264 266 269 272 291 305 309 307 305 300 289 279 272 268 274 282 288 290 289 290 290 280 266 254 247 241 237 234 234 237 240 243 245 245 245 244 243 241 240 238 237 234 232 232 232 234 235 234 232 229 225 230 236 239 242 247 255 264 270 271 269 267 264 260 254 243 232 224 219 217 217 217 217
46 53 68 34 255 236 236 214 118 50 276 297 327 318 300 299 293 283 291 281 288 299 297 290 280 274 274 280 293 305 310 310 309 305 292 281 277 276 278 282 286 289 292 293 293 286 272 259 250 246 242 239 237 236 237 239 242 243 244 245 244 243 241 239 237 235 233 233 234 234 234 232 232 231 227 228 234 237 241 246 254 261 264 266 264 261 258 255 246 240 236 227 225 225 223 224 223
52 79 97 287 207 203 194 184 183 217 265 299 320 313 261 290 305 316 302 278 293 299 296 294 289 283 283 287 294 303 310 309 310 315 307 294 285 283 286 287 288 288 289 292 294 290 280 268 256 248 245 242 241 239 237 238 239 241 242 244 244 244 243 240 238 236 234 233 233 233 232 231 231 232 229 228 232 236 241 247 253 258 260 262 259 256 252 249 239 235 237 230 229 230 229 231 228
127 111 119 228 203 212 220 219 243 245 266 285 308 310 280 295 309 320 310 291 303 302 296 299 297 298 300 298 300 305 306 300 301 308 307 303 295 292 293 291 290 288 288 292 296 295 285 271 258 251 246 244 243 242 240 239 239 240 240 242 244 244 244 243 241 239 237 234 233 233 232 232 232 232 230 230 234 239 244 248 253 256 258 258 255 251 247 244 236 232 236 233 231 234 234 233 231
196 129 140 242 219 238 270 272 273 279 290 296 311 311 298 302 305 305 306 303 303 287 291 297 299 306 312 311 308 307 305 298 297 302 301 299 298 296 295 291 290 290 290 290 291 291 287 275 262 253 247 244 243 244 243 241 240 241 241 241 243 244 244 243 243 242 239 237 235 234 233 232 232 231 231 232 235 240 245 249 252 254 256 256 252 248 244 240 234 230 235 235 234 236 236 234 232
191 156 182 233 209 235 274 280 287 296 308 309 308 308 301 303 302 296 308 316 299 284 293 295 296 306 314 316 313 308 304 299 298 299 299 298 299 298 296 294 293 292 290 285 285 292 291 282 272 259 250 246 243 243 243 243 242 243 243 242 243 244 244 243 243 243 241 240 239 237 235 233 233 231 231 233 236 240 245 249 252 254 256 256 252 247 243 239 235 230 232 237 237 237 237 235 233
178 209 227 240 208 211 271 279 289 297 306 307 306 305 299 303 300 292 288 269 275 290 300 302 301 306 311 315 314 310 305 303 303 302 302 302 301 300 299 300 299 297 292 287 292 297 293 287 281 270 259 251 246 245 244 245 244 244 244 244 245 244 244 243 243 243 243 242 241 240 236 234 233 230 230 234 238 243 246 250 253 256 258 257 252 248 244 240 237 232 232 237 239 238 238 237 234
219 258 243 249 246 242 268 275 283 295 300 297 294 293 298 304 300 297 276 262 281 295 302 303 306 310 312 314 314 313 313 311 310 308 307 304 302 303 303 301 298 296 293 293 298 298 295 293 288 280 272 264 255 250 248 247 245 245 246 246 246 245 245 243 243 244 245 244 243 241 239 237 235 231 231 235 240 244 247 251 255 257 258 258 255 250 246 242 239 235 230 234 239 239 239 238 237
214 262 259 261 262 257 268 272 280 290 289 285 290 292 293 294 294 304 284 280 290 301 305 305 308 316 317 318 320 321 320 318 316 313 309 302 300 301 299 294 288 282 281 284 289 294 299 300 294 287 282 279 273 262 254 250 249 248 248 247 246 245 245 245 245 247 248 247 245 243 241 239 238 235 235 237 241 245 248 252 255 258 259 258 256 251 249 245 242 237 230 234 240 240 239 239 238
195 235 267 273 277 279 284 286 287 288 286 288 295 288 282 285 289 288 281 285 297 306 309 310 313 318 320 325 328 326 322 320 317 310 303 299 299 299 297 292 286 277 271 270 275 282 292 297 295 291 288 287 284 278 270 262 256 252 250 249 248 246 246 246 246 247 248 249 248 247 244 242 241 240 240 242 244 247 250 254 257 260 261 261 258 253 250 249 245 239 232 234 242 241 240 240 241
201 213 269 283 287 296 301 296 290 288 288 288 290 285 284 289 297 282 276 288 309 307 308 315 318 319 327 336 336 333 329 323 315 304 297 298 302 303 300 294 288 281 271 266 268 271 276 282 288 294 294 292 287 282 279 276 269 261 255 252 251 250 248 247 247 246 247 248 249 249 248 247 246 245 244 245 247 249 251 254 257 260 262 264 262 256 251 251 248 243 234 235 242 244 241 241 242
280 295 308 301 301 305 302 290 287 289 290 283 257 269 282 289 312 270 277 306 316 303 308 316 317 321 335 347 344 343 335 327 319 307 301 302 305 305 300 292 285 280 271 265 266 267 267 269 275 284 289 289 287 284 284 282 278 273 267 260 255 253 252 251 249 248 248 247 247 249 250 251 251 250 248 248 249 251 253 255 257 260 261 264 266 261 253 250 249 246 238 236 242 247 245 242 241
321 337 323 306 314 310 294 283 285 289 293 281 220 251 287 296 174 251 277 312 309 299 307 311 314 330 350 360 355 347 328 324 321 310 308 309 309 303 294 287 280 274 270 265 264 264 265 268 269 273 278 280 280 282 284 283 282 281 276 269 263 259 256 254 253 253 252 251 249 248 249 251 253 254 253 253 254 255 257 258 259 260 262 264 266 266 258 250 246 245 240 234 238 243 244 242 240
319 347 326 303 336 316 289 283 283 275 271 265 160 288 309 258 218 258 287 305 296 296 302 308 323 352 10 6 352 337 316 310 306 308 314 314 308 298 288 284 278 271 269 266 264 264 267 270 272 275 276 274 273 275 280 281 283 282 279 275 271 267 263 259 257 256 256 256 255 253 252 252 253 254 254 255 256 258 260 261 261 262 264 266 266 267 264 255 246 243 240 234 234 238 241 241 240
309 335 308 302 351 316 284 292 300 290 278 228 149 172 290 254 251 267 297 298 293 298 300 312 343 6 10 357 343 331 312 296 294 306 309 302 297 293 290 285 281 276 273 271 270 269 271 273 275 277 273 269 270 271 273 277 280 281 280 278 275 271 268 265 263 261 260 259 259 259 258 257 256 256 255 255 256 259 262 264 264 264 265 266 266 266 266 262 251 243 240 236 234 237 241 242 241
305 327 356 325 326 279 289 306 322 321 301 201 160 202 260 266 276 283 302 297 297 298 298 322 355 1 8 2 13 14 353 351 317 318 298 304 305 300 300 291 287 282 278 276 276 277 276 274 272 268 260 252 257 267 272 275 277 279 279 278 276 275 272 269 268 266 265 263 263 262 262 262 261 259 257 257 258 259 262 263 264 266 267 266 267 267 266 266 260 248 242 239 237 237 240 242 243
12 305 309 326 208 264 302 304 242 227 293 165 153 221 263 268 277 287 303 298 297 295 299 332 352 354 21 50 87 95 74 68 65 68 360 323 308 300 300 294 290 286 285 284 282 282 275 267 258 253 246 240 242 252 262 266 269 272 273 274 274 274 272 270 269 269 268 267 266 265 265 265 263 262 261 261 262 263 263 264 264 265 266 266 267 268 267 267 267 257 247 242 241 240 240 242 244
351 196 251 265 216 254 312 308 234 167 270 147 166 227 270 275 277 292 301 296 296 299 309 336 355 6 59 92 98 100 91 86 72 52 24 336 312 302 299 297 298 298 301 303 295 284 265 247 238 242 245 245 246 242 243 249 255 261 264 267 267 268 269 268 268 268 267 267 267 268 267 267 266 265 264 265 266 267 267 266 267 267 266 266 266 267 267 268 271 266 255 250 248 246 243 242 243
311 270 230 242 225 220 279 301 322 42 62 302 253 222 253 270 277 290 295 293 298 307 317 334 8 63 93 99 94 88 79 72 56 45 28 359 334 315 312 311 317 323 329 334 328 300 240 223 221 237 246 250 254 248 244 245 247 252 257 261 263 263 264 264 265 264 265 266 267 268 268 268 267 266 266 267 268 269 270 269 269 269 268 268 267 266 267 268 270 269 263 259 258 255 251 247 245
247 249 236 263 255 239 255 272 302 354 13 328 298 276 270 276 279 286 291 297 306 310 313 322 21 100 105 98 87 82 77 70 60 51 41 29 13 1 1 1 8 16 26 37 36 41 191 207 224 241 247 251 255 252 250 248 247 251 255 259 259 261 261 262 262 262 263 264 265 267 267 268 268 268 267 267 268 270 270 270 269 269 270 269 268 267 266 266 268 269 267 266 266 264 260 256 252
226 235 213 240 256 263 263 259 275 333 350 299 281 277 274 285 291 288 295 307 314 306 303 299 122 111 102 93 87 83 78 73 69 65 62 58 54 51 54 56 54 54 56 53 46 45 61 15 297 274 264 259 256 253 247 240 239 242 247 252 253 255 256 257 258 259 259 259 261 262 264 265 266 268 268 268 268 269 270 270 270 269 269 269 269 268 268 269 270 270 269 271 272 270 266 263 259
234 252 242 247 249 271 269 264 280 328 337 272 271 288 275 282 283 286 303 320 330 323 316 130 117 107 99 92 87 83 80 79 78 79 78 75 74 73 73 72 69 67 64 58 54 53 46 35 22 18 10 319 271 254 242 232 233 235 238 243 247 249 251 254 256 257 259 259 259 260 260 261 262 264 266 267 268 269 270 270 270 269 269 269 270 271 272 273 272 271 270 270 270 268 267 266 264
249 247 264 274 256 261 257 254 284 343 163 265 325 344 294 285 281 301 330 347 353 359 97 116 106 101 96 93 90 87 88 89 90 88 85 85 84 83 83 81 79 74 71 68 63 59 56 56 55 53 51 44 41 37 5 252 243 242 245 243 242 243 243 247 251 253 257 257 258 258 259 259 259 261 263 265 266 267 269 269 269 270 270 270 270 271 271 271 270 269 268 268 267 266 266 266 265
213 219 233 267 252 272 280 275 304 360 269 275 333 343 292 286 289 349 18 44 42 54 100 108 104 103 96 94 94 95 97 95 94 91 88 87 85 85 84 80 78 76 74 72 69 68 67 65 62 59 56 52 49 48 44 35 17 328 279 257 248 244 241 243 245 248 251 253 255 256 257 257 256 257 258 260 262 264 266 266 267 269 269 270 269 270 270 270 269 268 267 266 265 265 264 263 263
219 208 201 250 240 221 275 287 312 327 322 286 313 319 290 285 302 39 46 70 69 75 95 97 100 100 96 98 98 98 98 94 94 92 90 90 88 86 83 80 79 77 75 73 70 69 67 65 63 62 60 56 53 49 45 41 33 16 348 312 283 265 250 244 244 247 251 253 257 258 258 258 255 255 254 256 257 258 259 260 262 264 265 266 266 267 268 268 269 267 266 265 263 262 262 262 263
251 217 211 239 242 217 224 287 325 333 352 11 355 335 301 289 311 62 67 76 73 77 87 85 89 94 97 99 98 97 97 95 95 94 93 91 89 86 83 81 78 75 72 68 66 64 64 64 64 63 62 60 58 55 52 50 47 39 19 349 325 316 304 285 263 257 258 259 262 264 265 263 260 257 254 253 252 252 253 254 255 256 257 259 261 263 264 266 266 266 265 264 263 264 265 266 265
290 236 216 225 239 241 232 333 4 17 337 336 33 2 293 310 331 187 169 78 65 69 75 76 81 91 97 96 94 97 97 97 96 94 94 92 90 88 84 81 77 73 70 65 63 61 61 62 62 61 61 60 58 56 55 53 54 54 48 38 18 3 359 3 7 351 318 290 277 273 271 269 267 265 262 259 257 255 254 253 252 251 252 254 256 258 261 263 263 264 265 265 265 266 267 267 266
287 248 208 206 203 196 173 98 60 132 250 285 57 105 261 311 318 218 173 109 84 73 64 70 80 87 94 96 97 98 97 99 98 96 96 94 91 88 84 80 77 74 71 67 64 61 59 59 59 59 58 58 57 55 53 51 52 53 51 47 37 27 26 26 23 18 10 1 342 313 290 277 271 268 267 265 262 259 256 254 253 252 250 249 250 253 258 261 263 263 263 263 265 266 266 265 266
238 238 141 131 130 147 153 119 150 220 247 312 354 160 242 290 279 229 157 130 102 82 67 68 81 87 93 98 99 100 100 100 99 98 96 92 89 86 82 80 77 74 71 68 64 61 59 58 57 57 56 56 56 54 53 51 50 51 52 50 44 36 32 28 25 21 16 14 10 5 360 347 319 291 275 268 264 261 259 256 255 254 250 248 248 251 254 257 260 261 261 261 262 263 264 265 266
237 212 132 121 130 149 146 121 185 258 12 306 290 160 242 261 267 292 151 168 172 133 126 97 95 100 103 104 103 102 102 100 99 97 94 91 87 84 81 78 75 72 68 63 60 59 58 57 56 55 55 55 55 53 53 53 53 54 54 53 51 47 40 34 33 32 29 26 23 16 12 10 6 356 334 310 287 273 266 261 259 259 257 254 252 252 253 254 256 257 258 259 259 260 261 263 265
210 160 105 60 67 89 94 115 132 32 347 255 238 187 202 266 281 307 119 208 210 163 144 135 124 119 115 112 109 107 104 102 100 97 94 90 87 83 80 76 71 67 63 59 57 56 54 53 51 50 53 55 54 53 52 54 56 55 56 55 53 51 46 40 40 40 39 37 33 25 16 10 7 0 350 338 326 315 303 287 274 266 263 262 260 258 256 254 254 254 255 256 256 258 258 260 261
125 101 55 24 21 37 41 68 89 60 275 251 225 195 174 274 282 230 176 260 187 151 146 160 145 133 126 120 116 112 107 104 101 98 95 90 86 83 78 72 67 64 60 56 53 51 49 49 46 45 50 52 51 50 48 48 49 48 50 51 49 48 44 39 38 38 38 37 34 30 21 12 5 357 349 342 335 331 327 319 307 289 274 269 267 266 264 260 257 255 254 253 253 254 255 257 259
95 85 63 36 340 6 22 355 41 111 254 269 233 171 150 221 266 296 316 326 329 158 167 170 155 140 132 127 123 117 110 107 103 99 95 92 88 84 76 69 65 61 56 52 51 48 46 46 44 41 46 49 46 43 38 35 34 34 37 38 38 39 36 31 30 29 29 29 29 27 22 15 8 358 351 344 336 331 328 326 323 314 301 285 273 269 269 268 265 260 255 253 252 252 253 254 256
81 94 86 71 324 347 351 301 330 217 252 276 162 122 135 233 241 5 345 336 333 300 159 155 148 140 136 134 129 122 116 112 107 102 98 95 90 82 73 66 61 56 51 49 48 45 43 44 42 37 41 45 40 34 31 28 26 29 30 29 30 30 28 26 25 24 24 22 21 18 14 12 10 4 358 352 347 340 333 329 324 321 317 308 297 286 277 271 268 264 260 256 254 253 253 254 255
139 143 127 123 145 209 266 265 274 268 271 289 162 126 284 265 312 4 346 337 351 64 123 139 140 138 138 137 132 126 122 117 110 105 100 94 87 79 70 62 56 51 49 46 43 42 40 38 35 33 36 40 35 29 27 23 25 30 30 26 24 21 19 19 19 21 22 21 18 14 11 9 6 4 2 358 355 351 346 340 332 326 321 316 312 306 298 290 281 273 267 262 258 256 256 256 255
176 158 137 148 160 173 224 229 222 262 284 299 292 214 213 227 309 340 358 22 47 82 111 127 131 136 139 137 134 130 124 118 111 104 97 92 88 81 70 61 53 50 49 44 41 41 37 35 36 36 40 41 34 27 22 21 25 26 24 20 17 14 13 12 12 13 15 16 15 12 9 7 4 1 359 356 352 348 347 346 342 337 331 325 321 317 313 308 300 290 280 271 266 262 259 258 258
210 129 116 169 186 165 195 212 184 192 301 298 251 224 210 178 275 331 30 51 62 81 103 118 128 139 143 141 138 132 125 119 113 107 101 97 95 88 71 56 50 49 46 41 41 48 53 56 57 52 52 48 36 27 20 20 21 19 17 13 9 8 6 5 6 7 8 10 9 7 5 4 1 358 355 352 349 345 343 342 341 340 338 335 331 327 324 321 315 308 298 288 280 273 267 263 261
166 122 175 215 180 133 126 267 192 98 270 274 212 221 294 349 270 320 31 45 52 67 99 124 138 148 150 148 142 134 129 125 121 117 114 112 109 99 65 37 31 29 33 38 57 79 79 73 66 58 54 49 39 31 22 17 17 13 8 4 359 356 356 357 359 1 3 3 1 360 0 358 355 352 350 349 348 345 342 338 336 335 335 335 333 330 329 327 325 323 317 308 300 290 280 273 269
130 164 212 206 125 86 96 234 330 30 250 272 270 212 236 246 238 270 56 75 70 82 134 144 151 161 161 155 147 141 138 136 136 134 137 151 159 141 17 6 5 18 39 79 86 72 64 62 61 59 56 51 44 39 30 22 20 15 8 1 356 352 352 352 353 354 353 353 350 349 350 349 347 347 346 345 344 344 343 340 338 334 332 332 330 329 329 327 325 324 322 319 315 307 298 290 283
124 178 192 118 133 270 72 160 225 241 243 274 292 264 234 209 200 195 195 184 164 180 191 179 176 178 174 165 156 154 156 160 167 171 207 222 220 242 293 313 286 201 154 72 43 41 45 48 51 54 51 46 42 35 29 24 20 16 10 5 359 355 353 350 349 348 345 342 340 339 340 339 339 339 339 338 337 338 339 339 340 338 336 333 330 328 327 326 325 323 321 320 317 313 309 307 302
67 63 18 61 162 181 176 176 176 186 229 265 287 289 270 233 202 182 187 182 172 182 196 204 194 185 180 172 165 173 183 194 207 214 236 240 234 242 252 260 250 240 292 16 35 36 43 41 38 39 35 32 29 22 20 18 15 13 8 5 1 355 353 350 349 348 345 342 339 337 336 335 334 333 332 331 330 330 330 330 332 333 333 333 332 330 328 326 324 322 320 319 317 315 313 311 310
109 100 219 254 212 168 253 233 138 146 194 234 268 273 266 252 208 170 174 176 180 182 180 198 197 188 184 178 177 215 214 217 232 240 249 241 230 235 244 254 262 279 320 19 40 35 37 31 27 27 23 19 17 12 11 9 6 5 1 357 354 350 349 348 347 346 343 342 339 337 335 334 333 332 330 328 326 325 324 322 322 322 323 324 325 326 326 326 325 323 320 318 316 315 314 313 311
149 169 189 188 173 141 270 261 203 149 189 195 231 259 268 260 219 163 165 173 187 184 176 190 197 191 188 192 213 237 226 230 240 244 249 237 225 234 243 251 254 245 230 109 52 33 30 24 19 19 14 10 8 5 3 359 357 355 351 348 346 343 343 343 343 342 341 339 338 336 334 332 330 329 328 327 325 322 321 318 317 316 316 316 317 317 318 319 320 320 319 318 317 314 312 311 311